Fort Drum, NY

5:32 AM EDT on May 25, 2018 (GMT -0400)
Wheeler-Sack Army Air Field

Weather History for KGTB - March, 2014

Change the Weather History Date:

Sunday, March 16, 2014

  Actual Average Record
Temperature  
Mean Temperature 12 °F -  
Max Temperature 19 °F 33 °F 59 °F (2016)
Min Temperature 3 °F 17 °F 3 °F (1998)
Degree Days  
Heating Degree Days 53    
Moisture  
Dew Point 2 °F    
Average Humidity 66    
Maximum Humidity 83    
Minimum Humidity 44    
Precipitation  
Precipitation 0.00 in - - ()
Sea Level Pressure  
Sea Level Pressure 30.21 in    
Wind  
Wind Speed 6 mph (NNW)    
Max Wind Speed 10 mph    
Max Gust Speed -    
Visibility 9 miles    
Events Snow    
Averages and records for this station are not official NWS values.
T = Trace of Precipitation, MM = Missing Value Source: NWS Daily Summary

Daily Weather History Graph

Daily Weather History Graph

Search for Another Location

Airport or City:

Astronomy

Mar. 16, 2014 Rise Set
Actual Time 7:13 AM EDT 7:10 PM EDT
Civil Twilight 6:44 AM EDT 7:39 PM EDT
Nautical Twilight 6:11 AM EDT 8:12 PM EDT
Astronomical Twilight 5:36 AM EDT 8:47 PM EDT
Moon 7:27 PM EDT (3/16) 6:55 AM EDT (3/16)
Length of Visible Light 12h 54m
Length of Day
11h 56m
Full, 100% of the Moon is Illuminated
Mar 16
Full
Mar 16
Full
Mar 23
Last Quarter
Mar 30
New
Apr 7
First Quarter

Hourly Weather History & Observations

Time (EDT) Temp. Windchill Dew Point Humidity Pressure Visibility Wind Dir Wind Speed Gust Speed Precip Events Conditions
12:03 AM 21.2 °F 13.6 °F 12.2 °F 68% 30.04 in 8.0 mi NNW 5.8 mph - N/A Snow Light Snow
12:10 AM 21.2 °F 11.7 °F 12.2 °F 68% 30.04 in 8.0 mi NNW 8.1 mph - N/A   Scattered Clouds
12:20 AM 21.2 °F 11.7 °F 12.2 °F 68% 30.04 in 8.0 mi NW 8.1 mph - N/A   Mostly Cloudy
12:25 AM 21.2 °F 11.7 °F 12.2 °F 68% 30.05 in 8.0 mi NNW 8.1 mph - N/A   Mostly Cloudy
12:58 AM 19.4 °F 8.6 °F 12.2 °F 74% 30.08 in 9.0 mi NNW 9.2 mph - 0.00 in   Overcast
1:58 AM 17.2 °F 6.8 °F 6.4 °F 63% 30.11 in 9.0 mi NNW 8.1 mph - N/A   Overcast
2:58 AM 15.6 °F 8.3 °F 5.5 °F 64% 30.13 in 10.0 mi North 4.6 mph - N/A   Overcast
3:08 AM 15.8 °F - 5.0 °F 62% 30.11 in 10.0 mi NW 2.3 mph - N/A   Overcast
3:23 AM 14.0 °F - 5.0 °F 67% 30.11 in 10.0 mi NW 2.3 mph - N/A   Overcast
3:28 AM 14.0 °F 8.2 °F 5.0 °F 67% 30.11 in 10.0 mi NNW 3.5 mph - N/A   Overcast
3:48 AM 14.0 °F 6.5 °F 5.0 °F 67% 30.12 in 10.0 mi North 4.6 mph - N/A   Overcast
3:58 AM 13.8 °F 4.9 °F 5.7 °F 70% 30.15 in 10.0 mi North 5.8 mph - N/A   Overcast
4:58 AM 12.0 °F 5.9 °F 4.6 °F 72% 30.18 in 10.0 mi North 3.5 mph - N/A   Mostly Cloudy
5:28 AM 10.4 °F 2.2 °F 3.2 °F 73% 30.16 in 10.0 mi North 4.6 mph - N/A   Overcast
5:58 AM 10.6 °F 1.0 °F 3.4 °F 73% 30.21 in 10.0 mi North 5.8 mph - N/A   Overcast
6:15 AM 10.4 °F 0.8 °F 3.2 °F 73% 30.18 in 10.0 mi North 5.8 mph - N/A Snow Light Snow
6:58 AM 9.3 °F 1.0 °F 2.8 °F 75% 30.24 in 10.0 mi North 4.6 mph - 0.00 in Snow Light Snow
7:10 AM 8.6 °F 0.1 °F 3.2 °F 79% 30.20 in 10.0 mi NNW 4.6 mph - N/A   Overcast
7:20 AM 8.6 °F 0.1 °F 3.2 °F 79% 30.21 in 10.0 mi North 4.6 mph - N/A   Overcast
7:31 AM 8.6 °F -2.6 °F 3.2 °F 79% 30.21 in 9.0 mi North 6.9 mph - N/A Snow Light Snow
7:41 AM 8.6 °F -2.6 °F 3.2 °F 79% 30.22 in 9.0 mi North 6.9 mph - N/A Snow Light Snow
7:46 AM 8.6 °F -3.7 °F 3.2 °F 79% 30.22 in 9.0 mi North 8.1 mph - N/A Snow Light Snow
7:58 AM 8.1 °F -4.3 °F 3.4 °F 81% 30.26 in 5.0 mi North 8.1 mph - 0.00 in Snow Light Snow
8:58 AM 9.0 °F -4.2 °F 4.8 °F 83% 30.28 in 5.0 mi North 9.2 mph - 0.00 in Snow Light Snow
9:03 AM 8.6 °F -2.6 °F 3.2 °F 79% 30.25 in 8.0 mi Variable 6.9 mph - N/A Snow Light Snow
9:07 AM 8.6 °F -2.6 °F 1.4 °F 73% 30.25 in 10.0 mi NNW 6.9 mph - N/A   Overcast
9:58 AM 8.6 °F -3.7 °F -0.9 °F 65% 30.32 in 10.0 mi North 8.1 mph - 0.00 in   Overcast
10:23 AM 8.6 °F -3.7 °F -2.2 °F 62% 30.28 in 10.0 mi NNW 8.1 mph - N/A   Scattered Clouds
10:58 AM 10.0 °F -2.9 °F -4.9 °F 51% 30.33 in 10.0 mi NW 9.2 mph - N/A   Clear
11:58 AM 10.8 °F -1.1 °F -4.7 °F 50% 30.33 in 10.0 mi NW 8.1 mph - N/A   Clear
12:58 PM 12.0 °F 0.5 °F -4.0 °F 49% 30.35 in 10.0 mi NW 8.1 mph - N/A   Partly Cloudy
1:58 PM 11.1 °F 0.4 °F -3.1 °F 53% 30.34 in 10.0 mi WNW 6.9 mph - N/A   Clear
2:58 PM 13.5 °F 0.5 °F -4.2 °F 45% 30.32 in 10.0 mi North 10.4 mph - N/A   Partly Cloudy
3:58 PM 14.4 °F 4.3 °F -4.2 °F 44% 30.32 in 10.0 mi Variable 6.9 mph - N/A   Clear
4:58 PM 14.4 °F 4.3 °F -3.5 °F 45% 30.31 in 10.0 mi WNW 6.9 mph - N/A   Clear
5:58 PM 14.0 °F 3.9 °F -1.7 °F 50% 30.29 in 10.0 mi WNW 6.9 mph - N/A   Partly Cloudy
6:58 PM 12.9 °F 2.6 °F -2.4 °F 51% 30.28 in 10.0 mi West 6.9 mph - N/A   Clear
7:58 PM 10.4 °F 0.8 °F -2.4 °F 56% 30.28 in 10.0 mi WSW 5.8 mph - N/A   Clear
8:58 PM 8.2 °F -3.0 °F -1.7 °F 64% 30.28 in 10.0 mi SSW 6.9 mph - N/A   Clear
9:58 PM 3.9 °F -8.2 °F -4.0 °F 70% 30.28 in 10.0 mi SSW 6.9 mph - N/A   Clear
10:58 PM 3.4 °F -7.5 °F -4.2 °F 71% 30.27 in 10.0 mi South 5.8 mph - N/A   Clear
11:58 PM 4.6 °F -6.0 °F -2.4 °F 73% 30.26 in 10.0 mi SSW 5.8 mph - N/A   Clear